Weather History for Mason, MI

Change the Weather History Date:

Monday, December 16, 2013

  Actual Average (KLAN) Record (KLAN)
Temperature  
Mean Temperature 8 °F 28 °F  
Max Temperature 18 °F 34 °F 61 °F (1984)
Min Temperature -2 °F 22 °F -11 °F (1876)
Degree Days  
Heating Degree Days 57 37  
Month to date heating degree days 552  
Since 1 July heating degree days 1966  
Cooling Degree Days 0 0  
Month to date cooling degree days 0  
Year to date cooling degree days 625  
Moisture  
Dew Point 7 °F    
Average Humidity 85    
Maximum Humidity 92    
Minimum Humidity 70    
Precipitation  
Precipitation 0.00 in 0.05 in 0.69 in (1921)
Month to date precipitation 1.02  
Year to date precipitation 30.92  
Snow  
Snow 0.00 in 0.50 in 6.20 in (2007)
Month to date snowfall 6.1  
Since 1 July snowfall 9.9  
Snow Depth -    
Sea Level Pressure  
Sea Level Pressure 30.05 in    
Wind  
Wind Speed 3 mph (SSE)    
Max Wind Speed 8 mph    
Max Gust Speed -    
Visibility 8 miles    
Events Snow    
T = Trace of Precipitation, MM = Missing Value Source: NWS Daily Summary

Daily Weather History Graph

Daily Weather History Graph

Search for Another Location

Airport:

Trip Planner

Search our weather history database for the weather conditions in past years. The results will help you decide how hot, cold, wet, or windy it might be!

Date:

Astronomy

Dec. 16, 2013 Rise Set
Actual Time 8:01 AM EST 5:05 PM EST
Civil Twilight 7:29 AM EST 5:37 PM EST
Nautical Twilight 6:53 AM EST 6:13 PM EST
Astronomical Twilight 6:19 AM EST 6:47 PM EST
Moon 4:56 PM EST (12/16) 7:07 AM EST (12/16)
Length of Visible Light 10h 08m
Length of Day
9h 04m
Full, 100% of the Moon is Illuminated
Dec 16
Full
Dec 17
Full
Dec 25
Last Quarter
Jan 1
New
Jan 7
First Quarter

Hourly Weather History & Observations

Time (EST) Temp. Windchill Dew Point Humidity Pressure Visibility Wind Dir Wind Speed Gust Speed Precip Events Conditions
12:14 AM 15.4 °F 4.6 °F 10.4 °F 80% 30.00 in 10.0 mi West 8.1 mph - N/A   Overcast
12:33 AM 14.9 °F 5.0 °F 10.4 °F 82% 30.01 in 10.0 mi West 6.9 mph - N/A   Overcast
12:53 AM 14.0 °F 3.9 °F 9.5 °F 82% 30.00 in 10.0 mi WNW 6.9 mph - N/A   Overcast
1:14 AM 13.1 °F 5.4 °F 9.0 °F 84% 30.01 in 10.0 mi West 4.6 mph - N/A   Scattered Clouds
1:33 AM 12.2 °F 2.9 °F 8.1 °F 83% 30.01 in 10.0 mi West 5.8 mph - N/A   Clear
1:54 AM 11.3 °F - 7.7 °F 85% 30.02 in 10.0 mi Calm Calm - N/A   Clear
2:13 AM 10.4 °F 2.2 °F 7.2 °F 87% 30.02 in 10.0 mi West 4.6 mph - N/A   Clear
2:33 AM 9.9 °F - 6.6 °F 87% 30.03 in 10.0 mi Calm Calm - N/A   Clear
2:54 AM 9.1 °F 0.8 °F 5.7 °F 86% 30.04 in 10.0 mi WSW 4.6 mph - N/A   Clear
3:13 AM 9.5 °F - 6.1 °F 86% 30.04 in 10.0 mi Calm Calm - N/A   Clear
3:33 AM 9.3 °F - 6.4 °F 88% 30.05 in 10.0 mi Calm Calm - N/A   Clear
3:54 AM 8.8 °F - 6.1 °F 89% 30.05 in 10.0 mi Calm Calm - N/A   Clear
4:13 AM 7.7 °F 1.0 °F 4.6 °F 87% 30.06 in 10.0 mi SW 3.5 mph - N/A   Clear
4:33 AM 3.9 °F -3.4 °F 1.9 °F 91% 30.06 in 10.0 mi SW 3.5 mph - N/A   Scattered Clouds
4:54 AM 3.6 °F - 1.0 °F 89% 30.06 in 10.0 mi Calm Calm - N/A   Mostly Cloudy
5:13 AM 4.3 °F -2.9 °F 1.9 °F 90% 30.06 in 10.0 mi SW 3.5 mph - N/A   Overcast
5:33 AM 6.6 °F - 4.1 °F 89% 30.06 in 10.0 mi Calm Calm - N/A   Scattered Clouds
5:54 AM 6.4 °F - 4.1 °F 90% 30.06 in 10.0 mi Calm Calm - N/A   Clear
6:13 AM 6.6 °F - 4.1 °F 89% 30.07 in 10.0 mi Calm Calm - N/A   Clear
6:34 AM 6.6 °F - 4.1 °F 89% 30.07 in 10.0 mi Calm Calm - N/A   Clear
6:53 AM 5.7 °F - 3.4 °F 90% 30.08 in 10.0 mi Calm Calm - N/A   Clear
7:13 AM 5.0 °F - 1.9 °F 87% 30.08 in 10.0 mi Calm Calm - N/A   Clear
7:34 AM 0.9 °F - -2.7 °F 85% 30.08 in 10.0 mi Calm Calm - N/A   Clear
7:53 AM -0.8 °F - -3.8 °F 87% 30.08 in 10.0 mi Calm Calm - N/A   Clear
8:13 AM -2.7 °F - -6.0 °F 86% 30.09 in 10.0 mi Calm Calm - N/A   Clear
8:34 AM -1.3 °F - -4.9 °F 85% 30.10 in 10.0 mi Calm Calm - N/A   Clear
8:53 AM -1.7 °F - -4.9 °F 86% 30.10 in 7.0 mi Calm Calm - N/A Snow Light Snow
9:13 AM 0.7 °F - -2.4 °F 87% 30.11 in 7.0 mi Calm Calm - N/A Snow Light Snow
9:34 AM 1.2 °F -8.5 °F -2.4 °F 85% 30.11 in 5.0 mi SSE 4.6 mph - N/A Snow Light Snow
9:53 AM 4.8 °F - 2.7 °F 91% 30.12 in 5.0 mi Calm Calm - N/A   Clear
10:13 AM 8.2 °F - 6.3 °F 92% 30.13 in 7.0 mi Calm Calm - N/A   Clear
10:34 AM 8.4 °F - 6.3 °F 91% 30.14 in 5.0 mi Calm Calm - N/A   Scattered Clouds
10:53 AM 9.5 °F - 7.5 °F 92% 30.14 in 7.0 mi Calm Calm - N/A   Mostly Cloudy
11:14 AM 11.3 °F - 9.1 °F 91% 30.14 in 7.0 mi Calm Calm - N/A   Overcast
11:34 AM 12.2 °F - 10.2 °F 92% 30.13 in 10.0 mi Calm Calm - N/A   Overcast
11:53 AM 13.1 °F - 11.1 °F 92% 30.12 in 10.0 mi Calm Calm - N/A   Overcast
12:14 PM 13.6 °F - 11.7 °F 92% 30.10 in 10.0 mi Calm Calm - N/A   Mostly Cloudy
12:34 PM 14.5 °F - 12.2 °F 90% 30.10 in 10.0 mi Calm Calm - N/A   Scattered Clouds
12:53 PM 15.8 °F - 10.6 °F 80% 30.09 in 10.0 mi Calm Calm - N/A   Clear
1:14 PM 16.9 °F - 10.2 °F 75% 30.08 in 10.0 mi Calm Calm - N/A   Clear
1:34 PM 16.9 °F - 10.2 °F 75% 30.08 in 10.0 mi Calm Calm - N/A   Clear
1:53 PM 16.2 °F - 9.7 °F 76% 30.07 in 10.0 mi Calm Calm - N/A   Clear
2:14 PM 17.2 °F - 10.4 °F 75% 30.06 in 10.0 mi Calm Calm - N/A   Clear
2:34 PM 17.6 °F - 10.2 °F 73% 30.06 in 10.0 mi Calm Calm - N/A   Clear
2:53 PM 18.0 °F 12.7 °F 10.4 °F 72% 30.06 in 10.0 mi NNE 3.5 mph - N/A   Clear
3:14 PM 17.8 °F 12.5 °F 9.5 °F 70% 30.06 in 10.0 mi NNE 3.5 mph - N/A   Clear
3:33 PM 17.4 °F 12.1 °F 9.5 °F 71% 30.05 in 10.0 mi NE 3.5 mph - N/A   Clear
3:54 PM 17.4 °F 12.1 °F 9.5 °F 71% 30.05 in 10.0 mi NNE 3.5 mph - N/A   Clear
4:14 PM 16.9 °F 11.5 °F 9.1 °F 72% 30.04 in 10.0 mi NE 3.5 mph - N/A   Clear
4:33 PM 15.6 °F - 8.6 °F 74% 30.04 in 10.0 mi Calm Calm - N/A   Clear
4:54 PM 14.0 °F 6.5 °F 8.2 °F 78% 30.04 in 10.0 mi ENE 4.6 mph - N/A   Clear
5:14 PM 14.0 °F 6.5 °F 8.1 °F 77% 30.04 in 10.0 mi East 4.6 mph - N/A   Clear
5:33 PM 13.8 °F 8.0 °F 8.4 °F 79% 30.04 in 10.0 mi East 3.5 mph - N/A   Clear
5:54 PM 12.6 °F - 7.5 °F 80% 30.05 in 10.0 mi Calm Calm - N/A   Clear
6:14 PM 12.2 °F 6.1 °F 7.2 °F 80% 30.05 in 10.0 mi SSE 3.5 mph - N/A   Clear
6:33 PM 9.9 °F 1.6 °F 7.5 °F 90% 30.05 in 10.0 mi South 4.6 mph - N/A   Clear
6:54 PM 7.7 °F -0.9 °F 5.0 °F 89% 30.05 in 10.0 mi SSE 4.6 mph - N/A   Clear
7:14 PM 10.2 °F 2.0 °F 6.4 °F 85% 30.04 in 10.0 mi SE 4.6 mph - N/A   Scattered Clouds
7:33 PM 9.7 °F -1.3 °F 5.7 °F 84% 30.03 in 10.0 mi SSE 6.9 mph - N/A   Mostly Cloudy
7:54 PM 13.5 °F 3.3 °F 9.1 °F 83% 30.03 in 10.0 mi SSE 6.9 mph - N/A   Overcast
8:13 PM 14.4 °F 4.3 °F 9.3 °F 80% 30.02 in 10.0 mi SSE 6.9 mph - N/A   Overcast
8:34 PM 14.7 °F 3.8 °F 9.5 °F 80% 30.03 in 10.0 mi South 8.1 mph - N/A   Overcast
8:54 PM 14.9 °F 6.1 °F 10.9 °F 84% 30.03 in 3.0 mi South 5.8 mph - N/A Snow Light Snow
9:13 PM 14.7 °F 7.3 °F 11.3 °F 86% 30.02 in 2.0 mi SSE 4.6 mph - N/A Snow Light Snow
9:34 PM 14.5 °F 8.8 °F 12.0 °F 90% 30.01 in 1.2 mi SE 3.5 mph - N/A Snow Light Snow
9:54 PM 14.7 °F - 12.2 °F 90% 30.00 in 1.0 mi Calm Calm - N/A Snow Snow
10:13 PM 14.7 °F - 12.2 °F 90% 30.00 in 1.2 mi Calm Calm - N/A Snow Snow
10:34 PM 14.9 °F - 12.6 °F 90% 29.99 in 1.5 mi Calm Calm - N/A Snow Light Snow
10:53 PM 14.7 °F - 12.6 °F 91% 29.98 in 2.5 mi Calm Calm - N/A Snow Light Snow
11:13 PM 14.9 °F - 12.7 °F 91% 29.98 in 2.0 mi Calm Calm - N/A Snow Light Snow
11:34 PM 14.9 °F - 12.9 °F 92% 29.97 in 2.0 mi Calm Calm - N/A Snow Light Snow
11:53 PM 14.9 °F - 12.7 °F 91% 29.98 in 1.2 mi Calm Calm - N/A Snow Snow